Tracking 30995 objects as of 5-Jul-2025
HD Live streaming from Space Station
objects crossing your sky now

COSMOS 1375 DEB

Track COSMOS 1375 DEB now!
10-day predictions


NORAD ID: 17797
Int'l Code: 1982-055AP
Perigee: 926.2 km
Apogee: 941.3 km
Inclination: 65.8 °
Period: 103.6 minutes
Semi major axis: 7304 km
RCS: 0.0324 m2 (small)
Launch date: June 6, 1982
Source: Commonwealth of Independent States (former USSR) (CIS)
Launch site: PLESETSK MISSILE AND SPACE COMPLEX (PKMTR)

Note: This is SATELLITE DEBRIS
Your satellite tracking list
Your tracking list is empty




NASA's NSSDC Master Catalog

Two Line Element Set (TLE):
1 17797U 82055AP  25186.18589060  .00000617  00000-0  56233-3 0  9996
2 17797  65.8264  95.2418 0010359 329.4016 181.1854 13.90575016  3510
Source of the keplerian elements: AFSPC